Weather History for KASD - February, 2013

Change the Weather History Date:

Sunday, February 24, 2013

  Actual Average (KNEW) Record (KNEW)
Temperature  
Mean Temperature 58 °F 59 °F  
Max Temperature 69 °F 67 °F 83 °F (2011)
Min Temperature 46 °F 50 °F 28 °F (1989)
Degree Days  
Heating Degree Days 8 7  
Month to date heating degree days 225  
Since 1 July heating degree days 1081  
Cooling Degree Days 0 1  
Month to date cooling degree days 24  
Year to date cooling degree days 40  
Growing Degree Days 8 (Base 50)    
Moisture  
Dew Point 55 °F    
Average Humidity 86    
Maximum Humidity 100    
Minimum Humidity 61    
Precipitation  
Precipitation 0.58 in 0.18 in 3.15 in (1985)
Month to date precipitation 4.64  
Year to date precipitation 9.79  
Snow  
Snow 0.00 in - - ()
Month to date snowfall  
Since 1 July snowfall  
Snow Depth -    
Sea Level Pressure  
Sea Level Pressure 29.87 in    
Wind  
Wind Speed 5 mph (ENE)    
Max Wind Speed 10 mph    
Max Gust Speed 17 mph    
Visibility 9 miles    
Events Rain , Thunderstorm    
T = Trace of Precipitation, MM = Missing Value Source: NWS Daily Summary

Daily Weather History Graph

Daily Weather History Graph

Search for Another Location

Airport or City:

Trip Planner

Search our weather history database for the weather conditions in past years. The results will help you decide how hot, cold, wet, or windy it might be!

Date:

Astronomy

Feb. 24, 2013 Rise Set
Actual Time 6:30 AM CST 5:54 PM CST
Civil Twilight 6:06 AM CST 6:19 PM CST
Nautical Twilight 5:38 AM CST 6:46 PM CST
Astronomical Twilight 5:10 AM CST 7:14 PM CST
Moon 5:05 PM CST (2/24) 5:26 AM CST (2/24)
Length of Visible Light 12h 12m
Length of Day
11h 24m
Waxing Gibbous, 99% of the Moon is Illuminated
Feb 24
Waxing Gibbous
Feb 25
Full
Mar 4
Last Quarter
Mar 11
New
Mar 19
First Quarter

Hourly Weather History & Observations

Time (CST) Temp. Dew Point Humidity Pressure Visibility Wind Dir Wind Speed Gust Speed Precip Events Conditions
12:53 AM 54.0 °F 51.1 °F 90% 29.95 in 10.0 mi NNE 4.6 mph - N/A   Clear
1:53 AM 51.1 °F 50.0 °F 96% 29.94 in 10.0 mi NNE 3.5 mph - N/A   Clear
2:53 AM 48.9 °F 48.0 °F 97% 29.95 in 10.0 mi Calm Calm - N/A   Clear
3:53 AM 48.0 °F 48.0 °F 100% 29.94 in 10.0 mi Calm Calm - N/A   Clear
4:53 AM 46.9 °F 46.0 °F 97% 29.95 in 10.0 mi NNE 5.8 mph - N/A   Clear
6:53 AM 48.0 °F 46.0 °F 93% 29.95 in 10.0 mi NE 3.5 mph - N/A   Clear
7:53 AM 51.1 °F 48.0 °F 89% 29.96 in 10.0 mi ENE 5.8 mph - N/A   Clear
8:53 AM 55.0 °F 48.0 °F 77% 29.97 in 10.0 mi ENE 6.9 mph - 0.01 in   Clear
9:53 AM 60.1 °F 51.1 °F 72% 29.98 in 10.0 mi ENE 6.9 mph - N/A   Clear
10:53 AM 64.0 °F 53.1 °F 67% 29.97 in 10.0 mi Variable 5.8 mph - N/A   Clear
11:53 AM 66.9 °F 54.0 °F 63% 29.95 in 10.0 mi ESE 4.6 mph - N/A   Mostly Cloudy
12:53 PM 69.1 °F 55.0 °F 61% 29.92 in 10.0 mi ESE 8.1 mph - N/A   Scattered Clouds
1:53 PM 68.0 °F 55.0 °F 63% 29.90 in 10.0 mi East 9.2 mph - N/A   Clear
2:53 PM 64.9 °F 55.9 °F 73% 29.89 in 10.0 mi SE 8.1 mph - N/A   Overcast
3:53 PM 64.0 °F 55.0 °F 73% 29.87 in 10.0 mi East 8.1 mph - N/A   Overcast
4:53 PM 64.0 °F 55.9 °F 75% 29.87 in 10.0 mi ESE 9.2 mph - N/A   Overcast
5:53 PM 64.0 °F 55.9 °F 75% 29.86 in 10.0 mi SE 5.8 mph - N/A   Overcast
6:53 PM 64.0 °F 55.9 °F 75% 29.85 in 10.0 mi ESE 10.4 mph 17.3 mph N/A   Overcast
7:53 PM 62.1 °F 57.0 °F 84% 29.84 in 8.0 mi ENE 4.6 mph - 0.03 in Rain Rain
8:03 PM 60.8 °F 57.2 °F 88% 29.84 in 8.0 mi NE 3.5 mph - 0.01 in Rain , Thunderstorm Light Rain
8:48 PM 60.8 °F 57.2 °F 88% 29.85 in 7.0 mi ENE 4.6 mph - 0.08 in Rain Rain
8:53 PM 60.1 °F 57.9 °F 93% 29.85 in 7.0 mi ESE 3.5 mph - 0.09 in Rain Rain
9:04 PM 59.0 °F 57.2 °F 94% 29.86 in 3.0 mi ENE 3.5 mph - 0.07 in Rain , Thunderstorm Heavy Thunderstorms and Rain
9:40 PM 59.0 °F 57.2 °F 94% 29.84 in 5.0 mi ENE 8.1 mph - 0.19 in Rain , Thunderstorm Thunderstorms and Rain
9:53 PM 59.0 °F 57.9 °F 96% 29.85 in 7.0 mi NE 4.6 mph - 0.22 in Rain , Thunderstorm Thunderstorms and Rain
10:10 PM 60.8 °F 57.2 °F 88% 29.81 in 8.0 mi NE 9.2 mph - 0.01 in Rain Light Rain
10:21 PM 59.0 °F 57.2 °F 94% 29.80 in 10.0 mi East 8.1 mph 17.3 mph 0.02 in Rain , Thunderstorm Light Rain
10:45 PM 59.0 °F 57.2 °F 94% 29.81 in 2.5 mi East 6.9 mph - 0.16 in Rain , Thunderstorm Thunderstorms and Rain
10:53 PM 59.0 °F 57.9 °F 96% 29.80 in 5.0 mi East 9.2 mph - 0.16 in Rain , Thunderstorm Light Thunderstorms and Rain
11:23 PM 59.0 °F 59.0 °F 100% 29.78 in 8.0 mi East 9.2 mph - 0.06 in Rain Light Rain
11:31 PM 59.0 °F 59.0 °F 100% 29.77 in 9.0 mi East 8.1 mph 17.3 mph 0.06 in Rain , Thunderstorm Light Rain
11:38 PM 60.8 °F 59.0 °F 94% 29.77 in 8.0 mi East 9.2 mph - 0.07 in Rain , Thunderstorm Light Rain
11:48 PM 60.8 °F 59.0 °F 94% 29.76 in 10.0 mi East 8.1 mph - 0.07 in Rain Light Rain
11:53 PM 60.1 °F 60.1 °F 100% 29.78 in 10.0 mi East 6.9 mph - 0.07 in Rain Light Rain